Dewpoint
31 25 22 23 24 23 22 21 21 23 25 25 26 25 24 24 23 24 24 24 23 21 20 21 21 20 20 20 20 19 21 26 26 27 27 27 27 27 26 26 26 26 27 30 30 30 30 31 30 31 31 31 31 31 31 32 33 34 35 36 36 37 38 39 41 44 44 44 45 45 45 44 45 46 47 46 47 47 47 47 48 49 51 51 51 51
27 25 24 25 24 24 23 23 22 22 22 22 24 23 22 24 21 23 23 25 24 23 23 22 19 20 19 19 20 23 23 25 26 26 26 27 27 27 26 26 26 26 29 29 27 27 28 29 30 30 30 32 30 31 30 31 31 32 33 34 35 36 37 38 39 40 41 43 42 42 42 43 44 44 44 44 44 44 45 45 45 46 46 47 47 48
25 24 25 25 26 26 26 27 25 23 25 25 22 23 23 24 26 26 26 25 22 23 22 20 19 19 19 20 27 27 28 28 27 27 27 27 27 26 26 26 26 26 26 26 26 27 26 28 29 29 29 29 30 30 30 31 31 31 32 33 33 34 35 36 38 39 39 40 40 41 40 41 41 41 42 42 41 42 42 42 43 44 44 44 44 44
24 27 26 26 27 26 26 26 26 28 27 26 25 24 24 26 24 24 25 24 21 19 18 20 20 20 21 23 28 29 29 29 30 29 29 28 26 26 26 26 26 25 25 25 25 25 25 26 26 27 27 28 29 29 30 30 30 30 31 31 32 32 33 34 36 38 38 39 38 39 38 38 38 38 38 39 39 41 42 42 42 43 43 42 42 43
27 27 27 26 29 27 26 26 27 26 25 27 28 26 26 26 25 24 23 26 24 24 24 20 22 21 22 21 24 27 29 28 28 28 28 29 30 29 29 28 28 26 25 25 25 25 25 25 25 26 27 27 27 28 28 29 30 29 30 30 31 31 32 32 34 35 36 36 36 36 36 36 36 35 36 36 35 36 38 39 40 40 41 41 40 41
27 29 31 27 29 28 28 26 28 28 27 27 29 27 25 25 24 25 26 23 23 23 24 22 18 20 23 24 23 25 26 26 27 27 27 27 27 27 26 26 26 28 27 26 25 25 25 25 25 25 25 25 25 26 27 28 28 29 29 29 29 30 30 31 32 33 34 34 35 34 34 34 34 33 34 34 35 34 35 35 36 35 37 38 40 40
28 30 31 29 29 29 29 27 29 28 27 25 26 29 26 25 26 26 26 23 20 19 22 22 16 18 22 21 23 24 25 26 27 27 27 26 26 26 27 27 26 26 25 26 25 25 25 25 24 24 24 24 25 25 27 27 27 27 27 27 27 28 28 31 30 31 32 32 32 33 33 33 33 32 33 33 34 34 34 34 34 34 34 35 36 36
29 28 29 30 29 29 27 27 29 27 27 25 28 30 28 27 26 26 26 25 24 25 25 24 20 18 19 21 23 23 25 25 26 26 26 25 25 26 26 26 26 27 26 26 26 25 26 25 25 24 25 25 25 25 25 25 26 26 26 26 26 26 26 27 28 29 31 30 30 30 30 31 31 31 31 31 31 32 32 31 32 32 33 33 33 33
29 28 28 29 28 28 28 28 29 28 27 27 29 28 25 24 25 26 25 24 24 21 21 23 24 18 19 21 23 23 23 24 25 25 25 25 25 25 26 26 26 26 26 26 26 26 26 26 26 25 24 25 25 25 24 24 25 26 26 26 25 25 24 25 26 26 28 30 29 29 28 28 29 29 29 29 29 29 30 29 30 30 31 31 31 32
30 29 30 30 29 27 29 29 31 29 27 28 30 30 29 28 27 25 23 22 22 17 18 20 22 16 18 24 23 24 21 23 24 25 25 25 25 25 25 26 26 26 26 26 26 26 26 26 26 26 25 25 25 25 26 24 24 24 24 25 25 24 24 23 23 23 24 25 26 26 26 26 26 27 26 26 27 27 28 27 28 29 29 29 29 30
30 30 34 30 28 29 30 30 31 31 28 31 29 26 26 26 26 25 24 22 19 13 20 22 22 19 17 21 23 23 25 21 25 25 25 25 26 25 26 25 26 26 26 26 25 26 26 26 26 26 25 25 24 24 24 24 24 23 23 23 23 24 24 22 21 21 21 21 22 23 23 23 23 23 23 22 23 25 25 25 26 27 28 28 28 29
29 28 26 28 31 28 28 28 29 30 29 27 24 23 24 24 22 21 19 21 14 16 19 22 22 20 15 18 22 22 23 24 25 24 24 24 24 24 25 25 25 25 26 26 26 25 25 25 26 26 25 25 24 23 22 22 23 23 22 21 21 22 23 23 21 21 21 20 20 20 20 20 21 21 21 20 21 22 22 22 23 24 24 24 26 26
27 28 29 28 33 26 26 27 25 28 28 25 22 22 18 16 17 11 15 13 14 17 20 23 23 21 20 20 23 24 23 23 25 25 24 24 23 23 24 24 25 25 25 26 25 26 26 26 26 26 25 24 24 23 22 22 21 21 20 20 19 20 21 22 21 20 20 20 20 20 20 20 20 20 20 20 20 21 21 21 20 21 21 22 22 23
26 27 28 28 28 29 27 24 23 24 24 23 22 21 17 13 12 9 11 10 12 18 21 21 23 20 22 23 24 22 22 23 25 25 24 23 23 23 23 24 24 24 25 25 25 25 25 26 26 26 25 25 24 22 22 21 21 20 20 19 18 19 20 20 20 18 18 19 19 19 20 20 19 19 19 20 20 21 21 22 20 21 22 22 23 23
20 23 27 28 26 29 25 25 26 26 23 22 25 23 23 18 13 12 11 12 14 18 19 22 16 16 17 20 24 23 22 23 23 24 24 24 23 23 23 24 23 23 23 24 24 25 25 26 26 26 25 24 24 23 21 20 19 19 19 19 18 18 19 20 20 19 18 18 18 18 19 19 20 19 18 20 22 21 21 21 20 20 21 22 22 23
24 25 26 30 29 26 26 29 29 27 25 24 26 25 20 21 24 18 20 13 12 14 14 17 18 20 22 24 23 22 21 21 23 23 23 22 22 22 21 21 22 22 23 24 24 24 24 25 25 25 25 24 23 22 22 20 20 20 20 19 20 20 20 20 20 20 20 19 19 19 18 18 20 21 19 20 20 20 22 21 22 21 21 22 23 23
24 23 28 29 26 25 26 29 27 28 21 25 24 20 25 28 25 19 21 21 18 15 20 14 22 24 23 23 22 22 20 20 20 20 20 20 20 21 20 21 22 22 23 23 24 24 24 25 25 26 25 25 24 23 22 21 20 19 21 20 20 20 21 22 22 21 21 21 20 20 19 19 19 19 18 18 18 19 20 21 21 22 21 21 22 24
24 25 30 26 26 26 27 28 28 29 28 24 20 23 28 31 29 23 17 15 16 17 15 20 19 20 20 19 21 20 20 19 19 19 19 19 20 19 20 21 22 22 22 23 23 23 24 25 25 26 26 26 25 24 24 24 24 22 21 20 20 20 20 21 22 22 21 21 21 20 20 20 20 20 19 20 18 20 19 19 20 20 20 19 21 22
30 23 27 30 29 29 30 27 26 31 31 27 27 31 25 22 21 25 21 17 15 15 14 19 22 22 21 21 20 20 19 19 19 19 19 19 19 19 20 21 21 22 22 21 21 22 23 24 25 25 26 26 25 25 24 25 25 25 23 21 19 19 20 20 22 22 22 22 22 22 21 21 21 21 21 21 21 19 20 20 21 20 22 20 21 21
30 24 27 31 29 29 28 27 24 25 29 31 29 27 30 25 24 20 24 21 20 20 18 18 20 20 24 24 21 21 20 20 19 20 19 19 19 19 20 21 21 21 21 21 21 22 23 23 24 25 25 26 26 25 25 24 24 23 23 22 20 19 18 18 18 19 20 22 19 19 19 19 21 20 20 19 20 18 18 20 21 20 21 21 20 21
29 29 23 28 30 28 25 26 25 26 25 25 25 23 25 24 27 26 23 23 23 20 22 21 20 21 23 25 23 22 21 20 19 20 20 19 19 20 19 20 20 21 21 21 22 22 22 22 23 25 25 25 25 25 24 23 21 21 22 21 19 17 17 18 18 18 20 21 18 17 16 17 18 16 19 15 18 18 18 20 22 20 21 21 19 21
28 28 26 29 27 26 27 29 27 28 27 26 25 25 25 23 21 21 22 25 20 21 18 19 19 18 25 26 25 24 23 21 21 20 20 19 19 20 20 20 20 21 21 21 21 21 21 21 22 23 24 24 24 24 24 23 23 21 20 21 21 20 18 17 18 17 18 19 17 15 15 15 16 16 16 13 15 17 17 19 20 20 20 19 20 20
32 31 29 27 27 27 30 30 30 30 29 29 27 26 28 26 24 19 19 19 18 20 20 17 17 19 24 26 26 23 22 21 21 21 20 20 20 19 20 20 21 21 21 21 20 20 20 20 21 22 23 22 22 23 23 22 20 20 20 20 20 18 17 18 18 18 19 17 15 15 16 14 15 14 13 14 14 17 16 18 20 20 19 19 19 19
36 28 26 28 28 29 27 27 31 31 30 29 28 28 27 25 26 24 21 21 19 18 19 17 19 20 24 26 25 22 21 21 21 21 20 20 20 20 20 21 21 22 21 22 21 21 21 20 21 21 20 20 20 21 22 22 20 21 20 19 19 17 17 17 18 18 17 16 14 15 14 13 14 13 13 13 14 16 16 19 20 20 19 19 19 18
27 26 28 23 23 24 26 24 26 30 29 28 27 28 27 26 26 25 21 20 22 22 23 18 19 21 27 26 23 21 22 21 21 21 21 21 21 21 21 22 22 22 21 20 20 20 19 18 19 20 20 20 20 21 21 22 21 20 19 18 17 17 17 18 18 16 16 15 13 14 13 13 13 13 13 13 13 14 15 18 18 19 19 19 18 17
28 27 28 24 23 21 19 20 16 23 27 26 29 27 29 25 24 21 17 19 21 27 26 23 22 25 27 26 24 24 23 21 21 22 22 22 22 22 22 23 22 22 20 19 18 18 17 16 18 19 19 20 20 20 20 21 21 19 19 18 18 17 17 18 19 16 16 15 14 15 14 14 13 14 14 14 14 14 14 15 15 16 16 17 17 16
26 28 29 29 26 24 24 21 24 28 24 23 22 23 24 23 21 19 18 15 20 20 18 22 22 20 21 23 24 23 22 21 23 22 23 23 23 24 23 23 22 21 19 18 17 17 17 17 17 17 17 18 18 18 19 19 19 19 19 18 18 19 18 18 18 17 16 16 15 15 15 14 14 14 14 15 15 15 14 14 14 14 14 15 15 15
26 26 28 27 27 27 25 25 27 28 24 23 22 24 24 21 18 17 19 18 22 15 15 19 20 17 19 19 21 22 22 23 24 24 24 24 24 24 24 24 26 19 17 16 17 16 15 16 16 16 16 16 17 18 18 19 19 19 20 20 20 20 20 21 18 17 16 16 15 15 15 15 15 15 16 16 15 15 15 14 14 14 15 15 15 14
26 24 25 27 27 26 25 26 23 22 23 23 22 23 23 23 17 14 12 19 18 15 13 15 17 15 16 16 16 21 23 23 24 25 25 25 25 24 23 22 20 18 16 15 15 15 14 15 16 16 15 16 16 16 17 18 19 19 20 20 20 21 20 19 17 17 16 16 15 15 15 16 16 17 16 15 15 15 15 15 15 16 16 16 15 15
26 20 22 25 23 22 23 23 23 18 19 19 18 18 19 19 18 18 17 18 18 17 17 16 16 16 15 16 18 21 23 23 24 24 24 24 25 25 24 22 19 16 15 14 14 14 14 15 16 16 16 16 16 16 16 17 18 19 19 19 20 20 20 18 16 16 15 15 15 15 15 15 15 14 14 14 15 15 15 16 16 16 16 15 14 14
27 20 26 22 21 17 18 23 22 22 19 17 18 19 20 20 21 21 21 21 20 18 19 19 19 19 21 22 23 24 23 21 21 23 23 24 24 24 24 23 20 16 15 14 14 14 15 16 16 17 17 16 16 16 17 18 18 19 18 18 19 19 19 17 16 15 15 14 15 15 14 14 14 14 14 15 15 15 16 16 15 15 14 14 13 13
25 18 22 18 16 10 11 16 15 18 16 15 16 16 15 15 14 15 16 17 17 17 17 16 15 18 20 21 23 22 21 20 19 20 21 23 23 23 23 23 22 19 17 17 18 18 17 17 16 16 16 16 16 16 17 18 18 18 18 18 19 19 18 15 15 15 15 14 14 14 14 14 14 14 14 15 15 14 13 13 12 11 11 11 11 11
24 20 15 13 12 7 9 14 13 13 12 10 11 12 12 13 13 14 17 20 17 15 13 14 15 18 20 21 20 20 21 20 19 18 19 20 22 24 24 24 23 23 22 22 21 21 19 17 16 16 16 15 16 17 17 18 18 18 18 18 19 17 14 14 14 14 14 14 13 13 13 13 13 13 13 13 12 11 10 9 9 9 9 9 10 10
23 22 17 18 14 6 9 13 12 9 5 8 10 15 12 9 10 12 12 13 16 19 19 18 17 17 16 17 19 20 20 20 20 18 17 18 19 21 22 21 23 23 23 23 22 21 19 18 16 16 16 16 16 16 17 18 17 18 18 18 15 14 14 13 13 13 12 12 11 12 12 12 11 10 9 9 8 7 7 7 7 7 8 8 8 8
23 22 20 17 15 11 9 10 9 7 9 7 17 19 16 13 13 14 14 15 16 14 15 17 18 17 19 20 21 21 21 17 13 12 10 14 16 17 14 14 16 18 18 18 18 20 20 19 17 16 14 15 16 17 18 19 19 16 14 14 14 13 13 12 11 10 11 10 11 10 9 9 7 6 5 5 5 5 5 5 6 6 6 6 6 6
23 22 18 19 15 14 11 10 2 5 7 11 11 15 16 15 16 15 14 15 15 16 16 16 17 19 19 19 19 18 17 8 9 13 11 12 14 12 12 12 13 14 13 14 14 15 17 18 17 16 15 16 18 19 18 18 16 14 14 13 13 11 11 9 9 9 9 9 9 9 7 4 3 3 4 4 4 3 4 4 4 4 4 4 4 4
26 23 21 18 19 13 11 9 11 5 9 9 8 8 11 10 13 13 8 11 12 12 16 16 17 17 17 16 14 10 12 9 6 7 12 12 15 15 12 11 12 13 14 14 15 15 16 17 17 16 18 19 17 15 14 14 14 13 12 11 10 9 8 8 6 8 8 8 8 5 3 2 2 2 2 2 2 2 1 2 2 2 2 2 2 2
24 21 19 16 9 13 8 7 3 -0 2 5 8 10 15 14 14 16 10 8 13 8 13 17 15 11 11 7 7 10 11 5 7 10 12 12 14 17 16 16 16 15 15 16 17 18 18 19 18 18 18 15 14 13 13 12 11 10 9 9 9 7 7 6 7 7 7 6 3 2 1 1 0 1 1 0 -1 -0 1 0 1 0 1 0 -0 -0
24 21 20 17 13 12 9 10 7 0 -0 5 6 7 13 12 14 11 7 4 13 10 12 14 11 11 13 8 7 10 5 2 8 11 12 13 13 16 15 17 18 18 18 18 18 18 19 19 18 17 14 13 12 11 9 8 8 8 8 8 7 7 5 5 6 6 3 2 1 1 -0 -0 -1 -1 -1 -2 -1 -2 -2 -1 -1 -0 -0 -0 -1 -1
24 21 20 17 13 14 11 10 8 6 5 9 7 12 14 14 14 11 -1 -1 5 11 12 14 14 14 14 12 9 10 9 4 9 12 12 13 13 13 15 13 14 16 17 18 19 19 18 19 15 13 12 11 10 9 7 6 7 7 6 7 6 4 3 5 4 1 0 0 0 -0 -2 -2 -2 -2 -2 -2 -2 -2 -2 -2 -2 -2 -2 -2 -2 -2
21 17 20 16 16 16 17 11 10 11 12 9 11 14 16 17 9 -2 -0 4 10 15 16 15 14 15 14 11 11 8 12 12 13 13 14 14 13 12 13 14 13 13 12 12 14 23 18 17 15 13 11 9 8 7 5 4 5 5 5 5 3 2 4 2 0 -0 -0 -1 -2 -3 -4 -4 -4 -3 -4 -3 -3 -2 -2 -3 -2 -2 -3 -3 -3 -3
13 16 14 15 16 15 15 14 13 14 16 11 12 15 16 7 3 5 13 13 14 13 15 17 16 15 13 12 11 12 11 12 14 14 14 14 12 11 12 14 12 11 18 19 18 19 16 11 9 7 7 7 7 5 3 3 4 4 4 1 -0 0 0 -1 -0 -1 -3 -4 -5 -5 -5 -6 -5 -4 -4 -4 -4 -5 -4 -4 -4 -4 -4 -4 -4 -5
14 14 11 16 15 15 13 11 10 6 14 16 14 13 13 7 10 15 13 11 13 13 13 15 17 16 13 12 12 12 12 11 11 12 14 14 14 14 13 12 12 11 14 17 17 15 12 9 7 6 5 5 5 3 2 0 1 1 1 -2 -2 -0 -0 -1 -2 -3 -4 -5 -6 -6 -6 -7 -7 -6 -6 -6 -5 -6 -6 -5 -5 -5 -5 -5 -5 -5
11 4 -4 4 15 8 12 9 8 11 14 15 16 12 12 16 17 17 15 10 13 13 14 16 17 17 15 13 12 12 11 11 12 12 13 13 13 13 12 12 11 11 14 14 15 14 11 8 6 5 5 4 3 1 1 -1 -2 -1 -2 -3 -1 1 -2 -4 -4 -6 -7 -7 -7 -7 -7 -7 -7 -7 -7 -7 -6 -7 -7 -7 -6 -6 -5 -5 -6 -6
10 12 9 5 6 8 8 11 14 17 15 15 16 16 15 17 18 16 15 15 13 14 15 15 14 17 17 14 14 13 12 12 11 11 11 11 12 12 11 11 11 11 13 13 12 11 9 8 5 4 3 3 1 -1 -3 -4 -4 -3 -5 -3 -1 -4 -5 -6 -7 -8 -9 -9 -9 -10 -9 -10 -9 -9 -9 -8 -7 -7 -6 -7 -7 -7 -7 -6 -7 -7
11 12 10 10 7 9 11 11 13 11 12 13 15 16 15 14 15 16 14 14 14 15 16 15 15 15 17 18 16 15 15 14 14 14 14 14 13 12 11 10 11 12 12 9 7 7 6 4 3 2 3 2 0 -1 -2 -5 -5 -8 -5 -3 -3 -5 -6 -8 -10 -10 -10 -11 -11 -10 -10 -10 -9 -9 -8 -8 -7 -7 -6 -7 -6 -6 -7 -7 -7 -7
9 9 4 4 8 1 -0 8 7 8 10 12 13 15 15 14 14 14 15 15 14 15 16 16 15 15 15 17 18 16 16 17 17 17 16 15 13 12 10 11 12 12 11 9 7 5 2 0 1 -0 -0 -1 -1 -4 -4 -7 -6 -5 -5 -5 -4 -5 -8 -10 -10 -10 -10 -11 -10 -10 -10 -10 -9 -8 -8 -10 -8 -7 -7 -6 -6 -7 -7 -7 -8 -8
8 10 7 7 6 4 3 6 8 9 10 10 11 12 11 12 12 13 14 14 14 14 14 15 16 16 15 13 15 16 16 16 17 17 16 14 12 10 10 12 12 9 8 7 5 2 -0 -1 -0 -2 -2 -2 -1 -4 -5 -7 -7 -7 -7 -8 -7 -9 -11 -10 -11 -11 -11 -12 -12 -9 -10 -9 -6 -6 -7 -8 -9 -8 -8 -7 -7 -7 -8 -8 -8 -7
9 12 2 7 7 7 8 8 9 10 10 10 10 11 10 10 9 10 12 13 14 14 13 13 14 14 14 13 13 14 14 15 15 14 14 12 11 11 11 12 11 9 6 4 1 -0 1 -2 -3 -4 -4 -3 -4 -6 -8 -9 -9 -9 -8 -6 -9 -10 -12 -11 -10 -11 -13 -12 -11 -11 -9 -8 -9 -9 -8 -8 -9 -9 -8 -8 -8 -7 -7 -5 -4 -3
9 9 10 6 3 6 5 6 8 4 7 7 9 9 9 10 10 9 9 10 11 12 13 13 13 14 14 14 14 14 15 14 14 13 12 12 11 11 11 10 7 6 3 2 1 -2 -2 -3 -5 -5 -5 -5 -6 -8 -9 -10 -10 -10 -7 -10 -11 -12 -13 -11 -12 -14 -13 -11 -12 -11 -10 -9 -10 -11 -9 -9 -9 -9 -8 -4 6 5 2 1 7 12
9 9 9 9 8 7 8 9 9 9 8 8 8 9 9 10 10 10 10 10 10 11 12 11 12 12 12 13 14 14 14 13 13 12 11 11 12 12 11 9 5 3 1 -1 -3 -6 -5 -4 -5 -7 -8 -7 -8 -10 -10 -10 -10 -11 -11 -9 -9 -10 -12 -13 -11 -12 -11 -11 -11 -9 -8 -9 -9 -9 -9 -9 -8 -9 -8 -8 -7 5 10 11 11 13